| time (UTC) | temp F | wind direction | speed knots | gust knots | rain 1hr in | rain 24hr in | rain mn in | humidity % | barometer mb |
| 20260905201807 | 60 | 74 | 0.9 | 3.5 | 0.00 | 0.01 | 0.00 | 74 | 1018.9 |
| 20260905201222 | 60 | 68 | 0.9 | 3.5 | 0.00 | 0.01 | 0.00 | 73 | 1018.9 |
| 20260905200808 | 60 | 103 | 1.7 | 3.5 | 0.00 | 0.01 | 0.00 | 73 | 1019.0 |
| 20260905200736 | 60 | 103 | 1.7 | 3.5 | 0.00 | 0.01 | 0.00 | 73 | 1019.0 |
| 20260905200223 | 61 | 126 | 2.6 | 3.5 | 0.00 | 0.01 | 0.00 | 73 | 1019.0 |
| 20260905195730 | 61 | 65 | 0.9 | 1.7 | 0.00 | 0.01 | 0.00 | 73 | 1019.0 |
| 20260905195238 | 61 | 65 | 0.9 | 1.7 | 0.00 | 0.01 | 0.00 | 73 | 1019.0 |
| 20260905194724 | 61 | 119 | 0.9 | 1.7 | 0.00 | 0.01 | 0.00 | 72 | 1019.0 |
| 20260905194230 | 61 | 88 | 0.0 | 2.6 | 0.00 | 0.01 | 0.00 | 71 | 1019.0 |
| 20260905193736 | 61 | 79 | 1.7 | 2.6 | 0.00 | 0.01 | 0.00 | 70 | 1019.1 |
| 20260905193223 | 62 | 70 | 0.9 | 1.7 | 0.00 | 0.01 | 0.00 | 69 | 1019.0 |
| 20260905192730 | 62 | 108 | 0.9 | 1.7 | 0.00 | 0.01 | 0.00 | 68 | 1019.2 |
| 20260905192258 | 62 | 76 | 0.0 | 1.7 | 0.00 | 0.01 | 0.00 | 70 | 1019.2 |
| 20260905192226 | 62 | 76 | 0.0 | 1.7 | 0.00 | 0.01 | 0.00 | 70 | 1019.2 |
| 20260905191732 | 61 | 185 | 0.0 | 1.7 | 0.00 | 0.01 | 0.00 | 70 | 1019.2 |
| 20260905191239 | 61 | 117 | 0.0 | 1.7 | 0.00 | 0.01 | 0.00 | 69 | 1019.3 |
| 20260905190726 | 61 | 77 | 0.0 | 1.7 | 0.00 | 0.01 | 0.00 | 70 | 1019.2 |
| 20260905190253 | 61 | 93 | 0.9 | 1.7 | 0.00 | 0.01 | 0.00 | 70 | 1019.3 |
| 20260905190221 | 61 | 93 | 0.9 | 1.7 | 0.00 | 0.01 | 0.00 | 70 | 1019.3 |
| 20260905185728 | 61 | 331 | 0.0 | 4.3 | 0.00 | 0.01 | 0.00 | 69 | 1019.2 |
| 20260905185236 | 61 | 103 | 1.7 | 3.5 | 0.00 | 0.01 | 0.00 | 71 | 1019.2 |
| 20260905184722 | 61 | 205 | 1.7 | 3.5 | 0.00 | 0.01 | 0.00 | 72 | 1019.3 |
| 20260905184229 | 61 | 80 | 0.9 | 2.6 | 0.00 | 0.01 | 0.00 | 72 | 1019.3 |
| 20260905183756 | 61 | 123 | 0.9 | 3.5 | 0.00 | 0.01 | 0.00 | 74 | 1019.4 |
| 20260905183252 | 61 | 163 | 0.0 | 3.5 | 0.00 | 0.01 | 0.00 | 73 | 1019.4 |
| 20260905183220 | 61 | 163 | 0.0 | 3.5 | 0.00 | 0.01 | 0.00 | 73 | 1019.4 |
| 20260905182731 | 60 | 85 | 0.9 | 3.5 | 0.00 | 0.01 | 0.00 | 73 | 1019.4 |
| 20260905182238 | 60 | 74 | 0.9 | 3.5 | 0.00 | 0.01 | 0.00 | 72 | 1019.5 |
| 20260905181724 | 60 | 109 | 2.6 | 3.5 | 0.00 | 0.01 | 0.00 | 72 | 1019.5 |
| 20260905181231 | 60 | 166 | 0.0 | 1.7 | 0.00 | 0.01 | 0.00 | 73 | 1019.6 |
| 20260905180738 | 60 | 128 | 0.0 | 1.7 | 0.00 | 0.01 | 0.00 | 73 | 1019.5 |
| 20260905180225 | 60 | 126 | 0.0 | 2.6 | 0.00 | 0.01 | 0.00 | 73 | 1019.6 |
| 20260905175732 | 60 | 92 | 1.7 | 2.6 | 0.00 | 0.01 | 0.00 | 74 | 1019.6 |
| 20260905175240 | 60 | 82 | 0.9 | 1.7 | 0.00 | 0.01 | 0.00 | 74 | 1019.6 |
| 20260905174726 | 59 | 98 | 0.9 | 2.6 | 0.00 | 0.01 | 0.00 | 74 | 1019.6 |
| 20260905174233 | 59 | 101 | 1.7 | 2.6 | 0.00 | 0.01 | 0.00 | 74 | 1019.6 |
| 20260905173724 | 59 | 95 | 0.9 | 2.6 | 0.00 | 0.01 | 0.00 | 75 | 1019.5 |
| 20260905173231 | 59 | 60 | 0.9 | 2.6 | 0.00 | 0.01 | 0.00 | 74 | 1019.5 |
| 20260905172758 | 59 | 106 | 0.9 | 2.6 | 0.00 | 0.01 | 0.00 | 74 | 1019.4 |
| 20260905172234 | 58 | 81 | 0.9 | 2.6 | 0.00 | 0.01 | 0.00 | 75 | 1019.4 |
| 20260905171720 | 58 | 108 | 0.9 | 2.6 | 0.00 | 0.02 | 0.00 | 75 | 1019.4 |
| 20260905171227 | 58 | 105 | 2.6 | 2.6 | 0.00 | 0.02 | 0.00 | 74 | 1019.3 |
| 20260905170734 | 58 | 144 | 0.9 | 3.5 | 0.00 | 0.02 | 0.00 | 74 | 1019.4 |
| 20260905170221 | 59 | 107 | 1.7 | 3.5 | 0.00 | 0.02 | 0.00 | 75 | 1019.4 |
| 20260905165728 | 59 | 117 | 1.7 | 3.5 | 0.00 | 0.02 | 0.00 | 76 | 1019.4 |
| 20260905165237 | 59 | 104 | 1.7 | 5.2 | 0.00 | 0.02 | 0.00 | 75 | 1019.4 |
| 20260905164803 | 59 | 118 | 1.7 | 4.3 | 0.00 | 0.02 | 0.00 | 76 | 1019.2 |
| 20260905164259 | 59 | 77 | 2.6 | 5.2 | 0.00 | 0.02 | 0.00 | 74 | 1019.3 |
| 20260905163734 | 60 | 109 | 1.7 | 3.5 | 0.00 | 0.02 | 0.00 | 74 | 1019.3 |
| 20260905163300 | 60 | 84 | 0.9 | 1.7 | 0.00 | 0.02 | 0.00 | 74 | 1019.3 |
| 20260905162755 | 60 | 65 | 0.9 | 3.5 | 0.00 | 0.02 | 0.00 | 74 | 1019.2 |
| 20260905162253 | 60 | 101 | 1.7 | 3.5 | 0.00 | 0.02 | 0.00 | 73 | 1019.3 |
| 20260905161731 | 60 | 105 | 1.7 | 4.3 | 0.00 | 0.02 | 0.00 | 73 | 1019.1 |
| 20260905161238 | 60 | 128 | 0.9 | 4.3 | 0.00 | 0.02 | 0.00 | 73 | 1019.1 |
| 20260905160725 | 60 | 130 | 0.9 | 3.5 | 0.00 | 0.02 | 0.00 | 73 | 1019.0 |
| 20260905160232 | 60 | 122 | 1.7 | 3.5 | 0.00 | 0.02 | 0.00 | 73 | 1019.1 |
| 20260905155739 | 60 | 113 | 0.9 | 2.6 | 0.00 | 0.02 | 0.00 | 74 | 1019.0 |
| 20260905155306 | 60 | 118 | 0.9 | 1.7 | 0.00 | 0.02 | 0.00 | 75 | 1019.1 |
| 20260905155235 | 60 | 118 | 0.9 | 1.7 | 0.00 | 0.02 | 0.00 | 75 | 1019.1 |
| 20260905154739 | 59 | 227 | 0.9 | 1.7 | 0.00 | 0.02 | 0.00 | 75 | 1019.1 |
| 20260905154226 | 59 | 138 | 0.9 | 1.7 | 0.00 | 0.02 | 0.00 | 75 | 1019.1 |
| 20260905153733 | 59 | 155 | 0.9 | 1.7 | 0.00 | 0.02 | 0.00 | 77 | 1019.0 |
| 20260905153259 | 58 | 11 | 0.0 | 1.7 | 0.00 | 0.02 | 0.00 | 81 | 1019.1 |
| 20260905152754 | 57 | 80 | 0.9 | 1.7 | 0.00 | 0.02 | 0.00 | 82 | 1019.0 |
| 20260905152722 | 57 | 80 | 0.9 | 1.7 | 0.00 | 0.02 | 0.00 | 82 | 1019.0 |
| 20260905152230 | 56 | 84 | 0.9 | 2.6 | 0.00 | 0.02 | 0.00 | 85 | 1019.0 |
| 20260905151756 | 56 | 94 | 0.9 | 2.6 | 0.00 | 0.02 | 0.00 | 86 | 1019.1 |
| 20260905151231 | 55 | 101 | 0.0 | 1.7 | 0.00 | 0.02 | 0.00 | 89 | 1019.0 |
| 20260905150722 | 54 | 75 | 0.9 | 1.7 | 0.00 | 0.02 | 0.00 | 91 | 1019.0 |
| 20260905150229 | 53 | 71 | 0.0 | 1.7 | 0.00 | 0.02 | 0.00 | 94 | 1018.8 |
| 20260905145735 | 52 | 97 | 0.0 | 0.0 | 0.00 | 0.02 | 0.00 | 95 | 1018.8 |
| 20260905145223 | 51 | 97 | 0.0 | 0.0 | 0.00 | 0.02 | 0.00 | 95 | 1018.8 |
| 20260905144810 | 50 | 96 | 0.0 | 0.0 | 0.00 | 0.02 | 0.00 | 95 | 1018.8 |
| 20260905144305 | 50 | 96 | 0.0 | 0.0 | 0.00 | 0.02 | 0.00 | 94 | 1018.7 |
| 20260905143800 | 50 | 96 | 0.0 | 0.0 | 0.00 | 0.02 | 0.00 | 94 | 1018.6 |
| 20260905143256 | 50 | 97 | 0.0 | 0.0 | 0.00 | 0.02 | 0.00 | 94 | 1018.6 |
| 20260905142811 | 50 | 96 | 0.0 | 0.0 | 0.00 | 0.02 | 0.00 | 94 | 1018.5 |
| 20260905142227 | 50 | 97 | 0.0 | 0.0 | 0.00 | 0.02 | 0.00 | 94 | 1018.5 |
| 20260905141733 | 50 | 97 | 0.0 | 0.0 | 0.00 | 0.03 | 0.00 | 94 | 1018.5 |
| 20260905141300 | 50 | 96 | 0.0 | 1.7 | 0.00 | 0.03 | 0.00 | 94 | 1018.4 |
| 20260905140755 | 50 | 97 | 0.0 | 1.7 | 0.00 | 0.03 | 0.00 | 94 | 1018.4 |
| 20260905140311 | 50 | 84 | 0.0 | 0.0 | 0.00 | 0.03 | 0.00 | 94 | 1018.4 |
| 20260905135807 | 50 | 84 | 0.0 | 0.0 | 0.00 | 0.03 | 0.00 | 94 | 1018.4 |
| 20260905135223 | 50 | 84 | 0.0 | 0.0 | 0.00 | 0.03 | 0.00 | 94 | 1018.4 |
| 20260905134729 | 49 | 84 | 0.0 | 0.0 | 0.00 | 0.03 | 0.00 | 94 | 1018.2 |
| 20260905134256 | 49 | 84 | 0.0 | 0.0 | 0.00 | 0.03 | 0.00 | 94 | 1018.3 |
| 20260905134224 | 49 | 84 | 0.0 | 0.0 | 0.00 | 0.03 | 0.00 | 94 | 1018.3 |
| 20260905133731 | 49 | 84 | 0.0 | 0.0 | 0.00 | 0.03 | 0.00 | 94 | 1018.3 |
| 20260905133238 | 49 | 84 | 0.0 | 0.0 | 0.00 | 0.03 | 0.00 | 94 | 1018.2 |
| 20260905132725 | 49 | 84 | 0.0 | 0.0 | 0.00 | 0.03 | 0.00 | 95 | 1018.3 |
| 20260905132233 | 49 | 84 | 0.0 | 0.0 | 0.00 | 0.03 | 0.00 | 95 | 1018.2 |
| 20260905131723 | 49 | 84 | 0.0 | 0.0 | 0.00 | 0.03 | 0.00 | 95 | 1018.3 |
| 20260905131231 | 49 | 84 | 0.0 | 0.0 | 0.00 | 0.03 | 0.00 | 95 | 1018.2 |
| 20260905130735 | 49 | 84 | 0.0 | 0.0 | 0.00 | 0.03 | 0.00 | 95 | 1018.3 |
| 20260905130302 | 49 | 84 | 0.0 | 0.0 | 0.00 | 0.03 | 0.00 | 95 | 1018.3 |
| 20260905125737 | 49 | 84 | 0.0 | 0.0 | 0.00 | 0.03 | 0.00 | 94 | 1018.3 |
| 20260905125225 | 49 | 84 | 0.0 | 0.0 | 0.00 | 0.03 | 0.00 | 94 | 1018.1 |
| 20260905124731 | 49 | 84 | 0.0 | 0.0 | 0.00 | 0.03 | 0.00 | 94 | 1018.1 |
| 20260905124259 | 49 | 84 | 0.0 | 0.0 | 0.00 | 0.03 | 0.00 | 94 | 1018.1 |
| 20260905123734 | 49 | 84 | 0.0 | 0.0 | 0.00 | 0.03 | 0.00 | 94 | 1018.2 |
| 20260905123221 | 49 | 84 | 0.0 | 0.0 | 0.00 | 0.03 | 0.00 | 94 | 1018.2 |
| 20260905122808 | 49 | 84 | 0.0 | 0.0 | 0.00 | 0.03 | 0.00 | 94 | 1018.2 |
| 20260905122736 | 49 | 84 | 0.0 | 0.0 | 0.00 | 0.03 | 0.00 | 94 | 1018.2 |
| 20260905122224 | 49 | 84 | 0.0 | 0.0 | 0.00 | 0.03 | 0.00 | 94 | 1018.1 |
| 20260905121810 | 48 | 84 | 0.0 | 0.0 | 0.00 | 0.03 | 0.00 | 94 | 1018.1 |
| 20260905121738 | 48 | 84 | 0.0 | 0.0 | 0.00 | 0.03 | 0.00 | 94 | 1018.1 |
| 20260905121225 | 49 | 84 | 0.0 | 0.0 | 0.00 | 0.03 | 0.00 | 94 | 1018.2 |
| 20260905120752 | 49 | 84 | 0.0 | 0.0 | 0.00 | 0.03 | 0.00 | 94 | 1018.1 |
| 20260905120720 | 49 | 84 | 0.0 | 0.0 | 0.00 | 0.03 | 0.00 | 94 | 1018.1 |
| 20260905120231 | 49 | 84 | 0.0 | 0.0 | 0.00 | 0.03 | 0.00 | 94 | 1018.1 |
| 20260905115738 | 49 | 84 | 0.0 | 0.0 | 0.00 | 0.03 | 0.00 | 94 | 1018.1 |
| 20260905115227 | 49 | 84 | 0.0 | 0.0 | 0.00 | 0.03 | 0.00 | 94 | 1018.1 |
| 20260905114753 | 49 | 84 | 0.0 | 0.0 | 0.00 | 0.03 | 0.00 | 94 | 1018.2 |
| 20260905114721 | 49 | 84 | 0.0 | 0.0 | 0.00 | 0.03 | 0.00 | 94 | 1018.2 |
| 20260905114228 | 49 | 84 | 0.0 | 0.0 | 0.00 | 0.03 | 0.00 | 94 | 1018.1 |
| 20260905113734 | 49 | 84 | 0.0 | 0.0 | 0.00 | 0.03 | 0.00 | 94 | 1018.1 |
| 20260905113301 | 49 | 84 | 0.0 | 0.0 | 0.00 | 0.03 | 0.00 | 94 | 1018.0 |
| 20260905112757 | 48 | 84 | 0.0 | 0.0 | 0.00 | 0.03 | 0.00 | 94 | 1018.0 |
| 20260905112253 | 48 | 84 | 0.0 | 0.0 | 0.00 | 0.03 | 0.00 | 94 | 1018.0 |
| 20260905111807 | 48 | 84 | 0.0 | 0.0 | 0.00 | 0.04 | 0.00 | 94 | 1018.0 |
| 20260905111304 | 48 | 84 | 0.0 | 0.0 | 0.00 | 0.04 | 0.00 | 93 | 1017.9 |
| 20260905110739 | 48 | 84 | 0.0 | 0.0 | 0.00 | 0.04 | 0.00 | 93 | 1017.9 |
| 20260905110226 | 48 | 84 | 0.0 | 0.0 | 0.00 | 0.04 | 0.00 | 93 | 1017.9 |
| 20260905105733 | 48 | 84 | 0.0 | 0.0 | 0.00 | 0.04 | 0.00 | 93 | 1017.9 |
| 20260905105301 | 49 | 84 | 0.0 | 0.0 | 0.00 | 0.04 | 0.00 | 93 | 1017.7 |
| 20260905104735 | 49 | 84 | 0.0 | 0.0 | 0.00 | 0.04 | 0.00 | 93 | 1017.8 |
| 20260905104222 | 49 | 84 | 0.0 | 0.0 | 0.00 | 0.04 | 0.00 | 93 | 1017.9 |
| 20260905103729 | 49 | 84 | 0.0 | 0.0 | 0.00 | 0.04 | 0.00 | 94 | 1017.8 |
| 20260905103220 | 49 | 84 | 0.0 | 0.0 | 0.00 | 0.04 | 0.00 | 93 | 1017.8 |
| 20260905102727 | 49 | 84 | 0.0 | 0.0 | 0.00 | 0.04 | 0.00 | 93 | 1017.8 |
| 20260905102235 | 49 | 84 | 0.0 | 0.0 | 0.00 | 0.04 | 0.00 | 93 | 1017.7 |
| 20260905101800 | 49 | 84 | 0.0 | 0.0 | 0.00 | 0.04 | 0.00 | 93 | 1017.7 |
| 20260905101235 | 49 | 84 | 0.0 | 0.0 | 0.00 | 0.04 | 0.00 | 93 | 1017.7 |
| 20260905100802 | 49 | 84 | 0.0 | 0.0 | 0.00 | 0.04 | 0.00 | 93 | 1017.7 |
| 20260905100731 | 49 | 84 | 0.0 | 0.0 | 0.00 | 0.04 | 0.00 | 93 | 1017.7 |
| 20260905100257 | 49 | 84 | 0.0 | 0.0 | 0.00 | 0.04 | 0.00 | 93 | 1017.6 |
| 20260905100225 | 49 | 84 | 0.0 | 0.0 | 0.00 | 0.04 | 0.00 | 93 | 1017.6 |
| 20260905095732 | 49 | 84 | 0.0 | 0.0 | 0.00 | 0.04 | 0.00 | 93 | 1017.6 |
| 20260905095300 | 49 | 84 | 0.0 | 0.0 | 0.00 | 0.04 | 0.00 | 93 | 1017.8 |
| 20260905094734 | 49 | 84 | 0.0 | 0.0 | 0.00 | 0.04 | 0.00 | 93 | 1017.6 |
| 20260905094301 | 50 | 84 | 0.0 | 0.0 | 0.00 | 0.04 | 0.00 | 93 | 1017.6 |
| 20260905094229 | 50 | 84 | 0.0 | 0.0 | 0.00 | 0.04 | 0.00 | 93 | 1017.6 |
| 20260905093736 | 50 | 84 | 0.0 | 0.0 | 0.00 | 0.04 | 0.00 | 92 | 1017.7 |
| 20260905093304 | 50 | 84 | 0.0 | 0.0 | 0.00 | 0.04 | 0.00 | 93 | 1017.8 |
| 20260905092759 | 50 | 84 | 0.0 | 0.0 | 0.00 | 0.04 | 0.00 | 93 | 1017.7 |
| 20260905092255 | 50 | 84 | 0.0 | 0.0 | 0.00 | 0.04 | 0.00 | 93 | 1017.7 |
| 20260905092223 | 50 | 84 | 0.0 | 0.0 | 0.00 | 0.04 | 0.00 | 93 | 1017.7 |
| 20260905091729 | 50 | 84 | 0.0 | 0.0 | 0.00 | 0.04 | 0.00 | 93 | 1017.6 |
| 20260905091256 | 50 | 84 | 0.0 | 0.0 | 0.00 | 0.04 | 0.00 | 93 | 1017.7 |
| 20260905090731 | 50 | 84 | 0.0 | 0.0 | 0.00 | 0.04 | 0.00 | 92 | 1017.7 |
| 20260905090238 | 50 | 84 | 0.0 | 0.0 | 0.00 | 0.04 | 0.00 | 92 | 1017.7 |
| 20260905085806 | 50 | 84 | 0.0 | 0.0 | 0.00 | 0.04 | 0.00 | 92 | 1017.6 |
| 20260905085222 | 50 | 84 | 0.0 | 0.0 | 0.00 | 0.04 | 0.00 | 92 | 1017.6 |
| 20260905084732 | 51 | 84 | 0.0 | 0.0 | 0.00 | 0.04 | 0.00 | 92 | 1017.7 |
| 20260905084240 | 51 | 84 | 0.0 | 0.0 | 0.00 | 0.04 | 0.00 | 92 | 1017.7 |
| 20260905083726 | 51 | 84 | 0.0 | 0.0 | 0.00 | 0.04 | 0.00 | 92 | 1017.7 |
| 20260905083226 | 51 | 84 | 0.0 | 0.0 | 0.00 | 0.04 | 0.00 | 92 | 1017.7 |
| 20260905082733 | 51 | 84 | 0.0 | 0.0 | 0.00 | 0.04 | 0.00 | 92 | 1017.6 |
| 20260905082301 | 51 | 84 | 0.0 | 0.0 | 0.00 | 0.04 | 0.00 | 91 | 1017.5 |
| 20260905081734 | 51 | 84 | 0.0 | 0.9 | 0.00 | 0.05 | 0.04 | 91 | 1017.5 |
| 20260905081241 | 51 | 84 | 0.0 | 0.9 | 0.00 | 0.05 | 0.04 | 91 | 1017.5 |
| 20260905080804 | 51 | 84 | 0.0 | 1.7 | 0.00 | 0.05 | 0.04 | 91 | 1017.5 |
| 20260905080235 | 52 | 84 | 0.0 | 1.7 | 0.00 | 0.05 | 0.04 | 91 | 1017.4 |
| 20260905075721 | 52 | 84 | 0.0 | 0.0 | 0.00 | 0.05 | 0.04 | 92 | 1017.4 |
| 20260905075230 | 52 | 84 | 0.0 | 0.0 | 0.00 | 0.05 | 0.04 | 91 | 1017.5 |
| 20260905074736 | 52 | 84 | 0.0 | 0.0 | 0.00 | 0.05 | 0.04 | 91 | 1017.5 |
| 20260905074302 | 52 | 84 | 0.0 | 0.0 | 0.00 | 0.05 | 0.04 | 91 | 1017.5 |
| 20260905074230 | 52 | 84 | 0.0 | 0.0 | 0.00 | 0.05 | 0.04 | 91 | 1017.5 |
| 20260905073720 | 52 | 84 | 0.0 | 0.0 | 0.00 | 0.05 | 0.04 | 90 | 1017.5 |
| 20260905073307 | 52 | 84 | 0.0 | 0.0 | 0.00 | 0.05 | 0.04 | 90 | 1017.5 |
| 20260905072722 | 52 | 84 | 0.0 | 0.0 | 0.00 | 0.05 | 0.04 | 90 | 1017.5 |
| 20260905072231 | 53 | 84 | 0.0 | 0.0 | 0.00 | 0.05 | 0.04 | 90 | 1017.5 |
| 20260905071736 | 53 | 84 | 0.0 | 0.0 | 0.00 | 0.05 | 0.04 | 90 | 1017.5 |
| 20260905071304 | 53 | 84 | 0.0 | 0.0 | 0.00 | 0.05 | 0.04 | 90 | 1017.4 |
| 20260905070739 | 53 | 84 | 0.0 | 0.0 | 0.00 | 0.05 | 0.04 | 90 | 1017.4 |
| 20260905070307 | 53 | 84 | 0.0 | 1.7 | 0.00 | 0.05 | 0.04 | 89 | 1017.4 |
| 20260905065722 | 53 | 84 | 0.0 | 1.7 | 0.00 | 0.05 | 0.04 | 89 | 1017.2 |
| 20260905065230 | 54 | 109 | 0.0 | 0.0 | 0.00 | 0.05 | 0.04 | 89 | 1017.2 |
| 20260905064757 | 54 | 109 | 0.0 | 0.0 | 0.00 | 0.05 | 0.04 | 89 | 1017.1 |
| 20260905064232 | 54 | 109 | 0.0 | 0.0 | 0.00 | 0.05 | 0.04 | 89 | 1017.0 |
| 20260905063759 | 54 | 109 | 0.0 | 0.0 | 0.00 | 0.05 | 0.04 | 89 | 1017.0 |
| 20260905063254 | 54 | 109 | 0.0 | 0.0 | 0.00 | 0.05 | 0.04 | 89 | 1016.9 |
| 20260905062728 | 54 | 109 | 0.0 | 0.0 | 0.00 | 0.05 | 0.04 | 89 | 1017.0 |
| 20260905062236 | 54 | 109 | 0.0 | 0.0 | 0.00 | 0.05 | 0.04 | 89 | 1016.9 |
| 20260905061726 | 54 | 109 | 0.0 | 0.0 | 0.00 | 0.06 | 0.04 | 88 | 1017.0 |
| 20260905061254 | 54 | 109 | 0.0 | 0.0 | 0.00 | 0.06 | 0.04 | 88 | 1016.9 |
| 20260905060806 | 54 | 109 | 0.0 | 0.0 | 0.00 | 0.06 | 0.04 | 88 | 1016.8 |
| 20260905060225 | 54 | 109 | 0.0 | 0.0 | 0.00 | 0.06 | 0.04 | 88 | 1016.9 |
| 20260905055752 | 55 | 109 | 0.0 | 0.0 | 0.00 | 0.06 | 0.04 | 88 | 1016.9 |
| 20260905055229 | 55 | 109 | 0.0 | 0.0 | 0.00 | 0.06 | 0.04 | 87 | 1016.9 |
| 20260905054735 | 55 | 109 | 0.0 | 0.0 | 0.00 | 0.06 | 0.04 | 87 | 1016.8 |
| 20260905054302 | 55 | 109 | 0.0 | 0.0 | 0.00 | 0.06 | 0.04 | 87 | 1016.8 |
| 20260905053737 | 55 | 109 | 0.0 | 0.0 | 0.00 | 0.06 | 0.04 | 87 | 1016.8 |
| 20260905053224 | 55 | 109 | 0.0 | 0.0 | 0.00 | 0.06 | 0.04 | 87 | 1016.8 |
| 20260905052731 | 55 | 109 | 0.0 | 0.0 | 0.00 | 0.06 | 0.04 | 86 | 1016.8 |
| 20260905052258 | 56 | 109 | 0.0 | 0.0 | 0.00 | 0.06 | 0.04 | 86 | 1016.9 |
| 20260905051733 | 56 | 109 | 0.0 | 0.0 | 0.00 | 0.07 | 0.04 | 86 | 1016.9 |
| 20260905051239 | 56 | 109 | 0.0 | 0.0 | 0.00 | 0.07 | 0.04 | 86 | 1017.0 |
| 20260905050721 | 56 | 109 | 0.0 | 0.0 | 0.00 | 0.07 | 0.04 | 85 | 1017.0 |
| 20260905050309 | 56 | 109 | 0.0 | 0.0 | 0.00 | 0.07 | 0.04 | 85 | 1017.0 |
| 20260905045804 | 56 | 109 | 0.0 | 0.0 | 0.00 | 0.07 | 0.04 | 85 | 1017.0 |
| 20260905045732 | 56 | 109 | 0.0 | 0.0 | 0.00 | 0.07 | 0.04 | 85 | 1017.0 |
| 20260905045240 | 56 | 109 | 0.0 | 0.0 | 0.00 | 0.07 | 0.04 | 85 | 1017.0 |
| 20260905044730 | 57 | 109 | 0.0 | 0.0 | 0.00 | 0.07 | 0.04 | 85 | 1017.0 |
| 20260905044237 | 57 | 109 | 0.0 | 0.0 | 0.00 | 0.07 | 0.04 | 85 | 1017.7 |
| 20260905043725 | 57 | 109 | 0.0 | 0.0 | 0.00 | 0.07 | 0.04 | 85 | 1017.0 |
| 20260905043229 | 57 | 109 | 0.0 | 0.0 | 0.00 | 0.07 | 0.04 | 84 | 1017.0 |
| 20260905042736 | 57 | 109 | 0.0 | 0.0 | 0.00 | 0.07 | 0.04 | 84 | 1016.9 |
| 20260905042224 | 57 | 109 | 0.0 | 0.0 | 0.00 | 0.07 | 0.04 | 84 | 1016.9 |
| 20260905041730 | 57 | 109 | 0.0 | 0.0 | 0.00 | 0.08 | 0.04 | 83 | 1017.0 |
| 20260905041257 | 57 | 109 | 0.0 | 0.0 | 0.00 | 0.08 | 0.04 | 83 | 1016.9 |
| 20260905041225 | 57 | 109 | 0.0 | 0.0 | 0.00 | 0.08 | 0.04 | 83 | 1016.9 |
| 20260905040752 | 57 | 109 | 0.0 | 0.0 | 0.00 | 0.08 | 0.04 | 83 | 1016.9 |
| 20260905040720 | 57 | 109 | 0.0 | 0.0 | 0.00 | 0.08 | 0.04 | 83 | 1016.9 |
| 20260905040307 | 57 | 109 | 0.0 | 0.0 | 0.00 | 0.08 | 0.04 | 83 | 1016.9 |
| 20260905035803 | 57 | 109 | 0.0 | 0.0 | 0.00 | 0.08 | 0.04 | 83 | 1016.9 |
| 20260905035239 | 57 | 109 | 0.0 | 0.0 | 0.00 | 0.08 | 0.04 | 82 | 1016.8 |
| 20260905034725 | 58 | 109 | 0.0 | 0.0 | 0.00 | 0.08 | 0.04 | 82 | 1016.7 |
| 20260905034252 | 58 | 109 | 0.0 | 0.0 | 0.00 | 0.08 | 0.04 | 81 | 1016.7 |
| 20260905033727 | 58 | 109 | 0.0 | 0.0 | 0.00 | 0.08 | 0.04 | 81 | 1016.7 |
| 20260905033234 | 58 | 109 | 0.0 | 0.0 | 0.00 | 0.08 | 0.04 | 81 | 1016.7 |
| 20260905032726 | 58 | 109 | 0.0 | 0.0 | 0.00 | 0.08 | 0.04 | 80 | 1016.6 |
| 20260905032233 | 58 | 109 | 0.0 | 0.0 | 0.00 | 0.08 | 0.04 | 80 | 1016.5 |
| 20260905031739 | 58 | 109 | 0.0 | 0.0 | 0.00 | 0.10 | 0.04 | 79 | 1016.5 |
| 20260905031227 | 59 | 109 | 0.0 | 0.0 | 0.00 | 0.10 | 0.04 | 78 | 1016.5 |
| 20260905030731 | 59 | 109 | 0.0 | 1.7 | 0.00 | 0.10 | 0.04 | 78 | 1016.5 |
| 20260905030238 | 59 | 109 | 0.0 | 1.7 | 0.00 | 0.10 | 0.04 | 78 | 1016.4 |
| 20260905025725 | 59 | 109 | 0.0 | 0.9 | 0.00 | 0.10 | 0.04 | 77 | 1016.4 |
| 20260905025233 | 59 | 109 | 0.0 | 0.9 | 0.00 | 0.10 | 0.04 | 76 | 1016.4 |
| 20260905024739 | 60 | 109 | 0.0 | 0.0 | 0.00 | 0.10 | 0.04 | 76 | 1016.4 |
| 20260905024225 | 60 | 109 | 0.0 | 0.0 | 0.00 | 0.10 | 0.04 | 76 | 1016.4 |
| 20260905023727 | 60 | 109 | 0.0 | 0.0 | 0.00 | 0.10 | 0.04 | 75 | 1016.3 |
| 20260905023234 | 60 | 109 | 0.0 | 1.7 | 0.00 | 0.10 | 0.04 | 75 | 1016.4 |
| 20260905022721 | 60 | 109 | 0.0 | 1.7 | 0.00 | 0.10 | 0.04 | 75 | 1016.2 |
| 20260905022311 | 61 | 109 | 0.0 | 1.7 | 0.00 | 0.10 | 0.04 | 74 | 1016.2 |
| 20260905021805 | 61 | 109 | 0.0 | 1.7 | 0.00 | 0.13 | 0.04 | 74 | 1016.1 |
| 20260905021733 | 61 | 109 | 0.0 | 1.7 | 0.00 | 0.13 | 0.04 | 74 | 1016.1 |
| 20260905020736 | 61 | 109 | 0.0 | 1.7 | 0.00 | 0.13 | 0.04 | 72 | 1016.2 |
| 20260905020243 | 61 | 109 | 0.0 | 1.7 | 0.00 | 0.13 | 0.04 | 72 | 1016.2 |
| 20260905015725 | 61 | 98 | 0.0 | 0.9 | 0.00 | 0.13 | 0.04 | 71 | 1016.3 |
| 20260905015233 | 62 | 98 | 0.9 | 1.7 | 0.00 | 0.13 | 0.04 | 70 | 1016.4 |
| 20260905014739 | 62 | 98 | 0.0 | 1.7 | 0.00 | 0.13 | 0.04 | 70 | 1016.3 |
| 20260905014226 | 62 | 101 | 0.0 | 1.7 | 0.00 | 0.13 | 0.04 | 70 | 1016.3 |
| 20260905013733 | 62 | 96 | 0.9 | 1.7 | 0.00 | 0.13 | 0.04 | 70 | 1016.3 |
| 20260905013224 | 62 | 118 | 0.9 | 1.7 | 0.00 | 0.13 | 0.04 | 70 | 1016.3 |
| 20260905012753 | 62 | 79 | 0.0 | 3.5 | 0.00 | 0.13 | 0.04 | 70 | 1016.3 |
| 20260905012229 | 62 | 103 | 0.9 | 3.5 | 0.00 | 0.13 | 0.04 | 69 | 1016.3 |
| 20260905011755 | 63 | 76 | 1.7 | 4.3 | 0.00 | 0.15 | 0.04 | 68 | 1016.1 |
| 20260905011230 | 63 | 81 | 2.6 | 5.2 | 0.00 | 0.15 | 0.04 | 68 | 1016.0 |
| 20260905010737 | 63 | 35 | 1.7 | 5.2 | 0.00 | 0.15 | 0.04 | 64 | 1016.0 |
| 20260905010304 | 64 | 88 | 2.6 | 5.2 | 0.00 | 0.15 | 0.04 | 63 | 1015.8 |
| 20260905010232 | 64 | 88 | 2.6 | 5.2 | 0.00 | 0.15 | 0.04 | 63 | 1015.8 |
| 20260905005739 | 64 | 83 | 1.7 | 5.2 | 0.00 | 0.15 | 0.04 | 62 | 1015.7 |
| 20260905005227 | 64 | 94 | 3.5 | 6.1 | 0.00 | 0.15 | 0.04 | 60 | 1015.7 |
| 20260905004733 | 65 | 80 | 1.7 | 2.6 | 0.00 | 0.15 | 0.04 | 61 | 1015.6 |
| 20260905004220 | 65 | 89 | 0.9 | 6.1 | 0.00 | 0.15 | 0.04 | 61 | 1015.6 |
| 20260905003807 | 65 | 66 | 2.6 | 6.1 | 0.00 | 0.15 | 0.04 | 61 | 1015.6 |
| 20260905003237 | 65 | 39 | 0.0 | 2.6 | 0.00 | 0.15 | 0.04 | 65 | 1015.6 |
| 20260905002804 | 65 | 93 | 0.9 | 2.6 | 0.00 | 0.15 | 0.04 | 65 | 1015.6 |
| 20260905002732 | 65 | 93 | 0.9 | 2.6 | 0.00 | 0.15 | 0.04 | 65 | 1015.6 |
| 20260905002221 | 65 | 55 | 0.9 | 2.6 | 0.00 | 0.15 | 0.04 | 66 | 1015.6 |
| 20260905001731 | 66 | 44 | 1.7 | 3.5 | 0.00 | 0.15 | 0.04 | 64 | 1015.6 |
| 20260905001238 | 66 | 93 | 2.6 | 3.5 | 0.00 | 0.15 | 0.04 | 60 | 1015.5 |
| 20260905000725 | 66 | 78 | 1.7 | 5.2 | 0.00 | 0.15 | 0.04 | 60 | 1015.7 |
| 20260905000233 | 66 | 36 | 1.7 | 5.2 | 0.00 | 0.15 | 0.04 | 58 | 1015.6 |
| 20260904235739 | 67 | 81 | 1.7 | 6.1 | 0.00 | 0.15 | 0.04 | 59 | 1015.5 |
| 20260904235307 | 67 | 88 | 0.9 | 7.0 | 0.00 | 0.15 | 0.04 | 60 | 1015.5 |
| 20260904234738 | 68 | 107 | 2.6 | 7.0 | 0.00 | 0.15 | 0.04 | 57 | 1015.6 |
| 20260904234225 | 69 | 97 | 0.9 | 1.7 | 0.01 | 0.15 | 0.04 | 54 | 1015.6 |
| 20260904233732 | 69 | 329 | 0.0 | 1.7 | 0.01 | 0.15 | 0.04 | 54 | 1015.6 |
| 20260904233239 | 69 | 303 | 0.0 | 1.7 | 0.01 | 0.15 | 0.04 | 53 | 1015.5 |
| 20260904232726 | 69 | 197 | 0.0 | 1.7 | 0.01 | 0.15 | 0.04 | 53 | 1015.5 |
| 20260904232238 | 69 | 284 | 0.0 | 1.7 | 0.01 | 0.15 | 0.04 | 55 | 1015.4 |
| 20260904231725 | 69 | 282 | 0.9 | 2.6 | 0.01 | 0.15 | 0.04 | 54 | 1015.4 |
| 20260904231252 | 69 | 42 | 0.9 | 2.6 | 0.01 | 0.15 | 0.04 | 53 | 1015.3 |
| 20260904230727 | 69 | 355 | 0.9 | 1.7 | 0.01 | 0.15 | 0.04 | 54 | 1015.2 |
| 20260904230234 | 68 | 146 | 0.0 | 1.7 | 0.01 | 0.15 | 0.04 | 56 | 1015.2 |
| 20260904225801 | 68 | 163 | 0.0 | 1.7 | 0.01 | 0.15 | 0.04 | 56 | 1015.2 |
| 20260904225238 | 68 | 173 | 0.9 | 2.6 | 0.01 | 0.15 | 0.04 | 57 | 1015.2 |
| 20260904224805 | 68 | 272 | 0.9 | 2.6 | 0.01 | 0.15 | 0.04 | 55 | 1015.2 |
| 20260904224301 | 69 | 304 | 0.0 | 3.5 | 0.00 | 0.14 | 0.03 | 56 | 1015.0 |
| 20260904223756 | 69 | 315 | 0.9 | 3.5 | 0.00 | 0.14 | 0.03 | 55 | 1014.9 |
| 20260904223231 | 69 | 270 | 0.0 | 3.5 | 0.00 | 0.14 | 0.03 | 56 | 1014.9 |
| 20260904222758 | 69 | 323 | 0.9 | 2.6 | 0.00 | 0.14 | 0.03 | 56 | 1014.9 |
| 20260904222726 | 69 | 323 | 0.9 | 2.6 | 0.00 | 0.14 | 0.03 | 56 | 1014.9 |
| 20260904222235 | 69 | 136 | 0.9 | 1.7 | 0.00 | 0.14 | 0.03 | 55 | 1014.9 |
| 20260904221738 | 69 | 325 | 0.0 | 2.6 | 0.00 | 0.17 | 0.03 | 58 | 1015.0 |
| 20260904221225 | 69 | 314 | 0.9 | 2.6 | 0.00 | 0.17 | 0.03 | 58 | 1015.0 |
| 20260904220752 | 68 | 315 | 1.7 | 2.6 | 0.00 | 0.17 | 0.03 | 58 | 1014.9 |
| 20260904220227 | 68 | 248 | 1.7 | 2.6 | 0.00 | 0.17 | 0.03 | 57 | 1015.0 |
| 20260904215754 | 69 | 293 | 1.7 | 4.3 | 0.00 | 0.17 | 0.03 | 55 | 1015.1 |
| 20260904215722 | 69 | 293 | 1.7 | 4.3 | 0.00 | 0.17 | 0.03 | 55 | 1015.1 |
| 20260904215229 | 69 | 309 | 1.7 | 4.3 | 0.00 | 0.17 | 0.03 | 53 | 1015.0 |
| 20260904214739 | 69 | 244 | 0.9 | 6.1 | 0.00 | 0.17 | 0.03 | 58 | 1014.9 |
| 20260904214307 | 69 | 286 | 2.6 | 6.1 | 0.00 | 0.17 | 0.03 | 55 | 1014.9 |
| 20260904213722 | 70 | 287 | 2.6 | 3.5 | 0.00 | 0.17 | 0.03 | 54 | 1014.9 |
| 20260904213310 | 70 | 312 | 1.7 | 3.5 | 0.00 | 0.17 | 0.03 | 53 | 1014.9 |
| 20260904212725 | 69 | 23 | 0.9 | 3.5 | 0.00 | 0.17 | 0.03 | 56 | 1014.7 |
| 20260904212253 | 69 | 314 | 1.7 | 3.5 | 0.00 | 0.17 | 0.03 | 56 | 1014.8 |
| 20260904211807 | 69 | 156 | 1.7 | 5.2 | 0.00 | 0.17 | 0.03 | 56 | 1014.8 |
| 20260904211735 | 69 | 156 | 1.7 | 5.2 | 0.00 | 0.17 | 0.03 | 56 | 1014.8 |
| 20260904211303 | 69 | 328 | 2.6 | 5.2 | 0.00 | 0.17 | 0.03 | 56 | 1014.7 |
| 20260904210758 | 69 | 257 | 0.9 | 3.5 | 0.00 | 0.17 | 0.03 | 57 | 1014.7 |
| 20260904210726 | 69 | 257 | 0.9 | 3.5 | 0.00 | 0.17 | 0.03 | 57 | 1014.7 |
| 20260904210232 | 69 | 262 | 1.7 | 3.5 | 0.00 | 0.17 | 0.03 | 57 | 1014.7 |
| 20260904205739 | 68 | 74 | 0.9 | 4.3 | 0.00 | 0.17 | 0.03 | 59 | 1014.7 |
| 20260904205227 | 68 | 350 | 1.7 | 4.3 | 0.00 | 0.17 | 0.03 | 58 | 1014.7 |
| 20260904204731 | 67 | 131 | 0.9 | 6.1 | 0.00 | 0.17 | 0.03 | 59 | 1014.7 |
| 20260904204230 | 67 | 249 | 3.5 | 6.1 | 0.00 | 0.17 | 0.03 | 58 | 1014.9 |
| 20260904203736 | 67 | 244 | 0.9 | 6.1 | 0.00 | 0.17 | 0.03 | 59 | 1014.8 |
| 20260904203223 | 67 | 127 | 0.9 | 6.1 | 0.00 | 0.17 | 0.03 | 59 | 1014.8 |
| 20260904202730 | 68 | 278 | 0.9 | 3.5 | 0.00 | 0.17 | 0.03 | 62 | 1014.8 |
| 20260904202259 | 67 | 170 | 0.0 | 2.6 | 0.00 | 0.17 | 0.03 | 63 | 1014.9 |